Location: Beetenbrück
(52.8113°N, 9.5946°E)
Time: 17:09:39
(UTC+00:00)

Meteor 1-11 - Pass Details

Date: 14 April 2026
Orbit: 825 x 899 km, 81.2° (Epoch: 9 May)

Event Time Altitude Azimuth Distance (km) Brightness Sun altitude
Rises 19:39:25 0° 348° (NNW) 3,410 8.1 -11.7°
Reaches altitude 10° 19:41:54 10° 351° (N) 2,463 7.3 -12.0°
Maximum altitude 19:47:25 63° 73° (ENE) 927 4.2 -12.7°
Enters shadow 19:51:53 16° 152° (SSE) 2,063 5.7 -13.3°
